Fresno, CA

7:48 AM PDT on September 19, 2017 (GMT -0700)
Fresno Yosemite International

Weather History for KFAT - May, 2013

Change the Weather History Date:

Sunday, May 19, 2013

  Actual Average Record
Temperature  
Mean Temperature 74 °F 71 °F  
Max Temperature 88 °F 85 °F 103 °F (2008)
Min Temperature 60 °F 57 °F 42 °F (1896)
Degree Days  
Heating Degree Days 0    
Month to date heating degree days 1  
Since 1 July heating degree days 1742  
Cooling Degree Days 9    
Month to date cooling degree days 184  
Year to date cooling degree days 331  
Growing Degree Days 24 (Base 50)    
Moisture  
Dew Point 43 °F    
Average Humidity 42    
Maximum Humidity 64    
Minimum Humidity 19    
Precipitation  
Precipitation 0.00 in 0.01 in 0.53 in (1884)
Month to date precipitation 0.07 0.30  
Year to date precipitation 2.28 7.50  
Since 1 July precipitation 5.67  
Snow  
Snow 0.00 in - - ()
Month to date snowfall 0.0  
Since 1 July snowfall 0.0  
Snow Depth 0.00 in    
Sea Level Pressure  
Sea Level Pressure 29.99 in    
Wind  
Wind Speed 8 mph (NW)    
Max Wind Speed 14 mph    
Max Gust Speed 21 mph    
Visibility 10 miles    
Events      
T = Trace of Precipitation, MM = Missing Value Source: NWS Daily Summary

Daily Weather History Graph

Daily Weather History Graph

Search for Another Location

Airport or City:

Trip Planner

Search our weather history database for the weather conditions in past years. The results will help you decide how hot, cold, wet, or windy it might be!

Date:

Astronomy

May. 19, 2013 Rise Set
Actual Time 5:48 AM PDT 8:03 PM PDT
Civil Twilight 5:18 AM PDT 8:32 PM PDT
Nautical Twilight 4:42 AM PDT 9:08 PM PDT
Astronomical Twilight 4:03 AM PDT 9:47 PM PDT
Moon 2:20 PM PDT 2:04 AM PDT
Length of Visible Light 15h 13m
Length of Day
14h 15m
Waxing Gibbous, 66% of the Moon is Illuminated
May 19
Waxing Gibbous
May 24
Full
May 31
Last Quarter
Jun 8
New
Jun 16
First Quarter

Hourly Weather History & Observations

Time (PDT) Temp. Dew Point Humidity Pressure Visibility Wind Dir Wind Speed Gust Speed Precip Events Conditions
12:53 AM 66.9 °F 45.0 °F 45% 30.03 in 10.0 mi NW 6.9 mph - N/A   Clear
1:53 AM 64.9 °F 46.0 °F 50% 30.02 in 10.0 mi NNW 6.9 mph - N/A   Clear
2:53 AM 64.0 °F 46.9 °F 54% 30.01 in 10.0 mi NNW 6.9 mph - N/A   Clear
3:53 AM 63.0 °F 48.0 °F 58% 30.01 in 10.0 mi WNW 11.5 mph - N/A   Clear
4:53 AM 62.6 °F 48.2 °F 59% 30.03 in 10.0 mi NW 10.4 mph - N/A   Clear
5:53 AM 61.0 °F 48.0 °F 62% 30.03 in 10.0 mi NW 10.4 mph - N/A   Clear
6:53 AM 61.0 °F 48.0 °F 62% 30.04 in 10.0 mi NW 10.4 mph - N/A   Clear
7:53 AM 64.9 °F 48.0 °F 54% 30.05 in 10.0 mi NW 12.7 mph - N/A   Clear
8:53 AM 68.0 °F 48.0 °F 49% 30.06 in 10.0 mi NNW 9.2 mph - N/A   Clear
9:53 AM 71.1 °F 46.9 °F 42% 30.05 in 10.0 mi WNW 8.1 mph - N/A   Clear
10:53 AM 75.0 °F 48.0 °F 38% 30.04 in 10.0 mi NNW 9.2 mph - N/A   Clear
11:53 AM 77.0 °F 46.4 °F 34% 30.03 in 10.0 mi Calm Calm - N/A   Clear
12:53 PM 80.6 °F 44.6 °F 28% 30.02 in 10.0 mi Variable 4.6 mph - N/A   Clear
1:53 PM 82.9 °F 43.0 °F 24% 29.99 in 10.0 mi WNW 9.2 mph - N/A   Clear
2:53 PM 84.9 °F 41.0 °F 21% 29.97 in 10.0 mi WSW 5.8 mph - N/A   Clear
3:53 PM 86.0 °F 39.9 °F 20% 29.95 in 10.0 mi Variable 3.5 mph - N/A   Partly Cloudy
4:53 PM 87.1 °F 41.0 °F 20% 29.93 in 10.0 mi West 10.4 mph 18.4 mph N/A   Partly Cloudy
5:53 PM 87.1 °F 39.0 °F 18% 29.92 in 10.0 mi NW 15.0 mph - N/A   Partly Cloudy
6:53 PM 84.9 °F 37.0 °F 18% 29.91 in 10.0 mi WNW 15.0 mph - N/A   Partly Cloudy
7:53 PM 82.0 °F 37.0 °F 20% 29.91 in 10.0 mi WNW 13.8 mph - N/A   Partly Cloudy
8:53 PM 78.8 °F 37.4 °F 23% 29.94 in 10.0 mi WNW 10.4 mph - N/A   Clear
9:53 PM 77.0 °F 36.0 °F 23% 29.94 in 10.0 mi NW 6.9 mph - N/A   Clear
10:53 PM 73.9 °F 35.1 °F 24% 29.95 in 10.0 mi North 3.5 mph - N/A   Clear
11:53 PM 72.0 °F 35.1 °F 26% 29.95 in 10.0 mi West 3.5 mph - N/A   Clear